Location: Limoges
(45.8354°N, 1.2645°E)
Time: 19:21:00
(UTC+02:00)

Courier 1B Rocket - Pass Details

Date: 29 February 2024
Orbit: 920 x 1201 km, 28.2° (Epoch: 20 April)

Event Time Altitude Azimuth Distance (km) Brightness Sun altitude
Rises 01:35:12 0° 210° (SSW) 3,719 - -51.5°
Reaches altitude 10° 01:41:24 10° 168° (SSE) 2,688 - -51.3°
Maximum altitude 01:41:51 10° 163° (SSE) 2,677 - -51.3°
Drops below altitude 10° 01:42:18 10° 159° (SSE) 2,678 - -51.3°
Sets 01:48:16 0° 116° (ESE) 3,570 - -51.0°
